Location: Degersen
(52.2871°N, 9.5716°E)
Time: 00:50:54
(UTC+00:00)

COSMOS 2406 - Pass Details

Date: 20 January 2026
Orbit: 843 x 861 km, 71.0° (Epoch: 18 February)

Event Time Altitude Azimuth Distance (km) Brightness Sun altitude
Exits shadow 03:53:06 34° 9° (N) 1,376 4.3 -30.9°
Maximum altitude 03:54:44 42° 48° (NE) 1,209 4.2 -30.7°
Drops below altitude 10° 04:00:09 10° 119° (ESE) 2,494 6.3 -29.9°
Sets 04:02:45 0° 126° (SE) 3,429 7.0 -29.5°
